Weather History for Suffolk, VA

Change the Weather History Date:

Thursday, March 7, 2013

  Actual Average Record
Temperature  
Mean Temperature 45 °F -  
Max Temperature 51 °F 57 °F 83 °F (1974)
Min Temperature 39 °F 36 °F 21 °F (1954)
Degree Days  
Heating Degree Days 20    
Moisture  
Dew Point 31 °F    
Average Humidity 61    
Maximum Humidity 81    
Minimum Humidity 41    
Precipitation  
Precipitation 0.00 in - - ()
Sea Level Pressure  
Sea Level Pressure 30.05 in    
Wind  
Wind Speed 13 mph (NW)    
Max Wind Speed 21 mph    
Max Gust Speed 30 mph    
Visibility 10 miles    
Events Rain    
Averages and records for this station are not official NWS values.
T = Trace of Precipitation, MM = Missing Value Source: NWS Daily Summary

Daily Weather History Graph

Daily Weather History Graph

Search for Another Location

Airport:

Trip Planner

Search our weather history database for the weather conditions in past years. The results will help you decide how hot, cold, wet, or windy it might be!

Date:

Astronomy

Mar. 07, 2013 Rise Set
Actual Time 6:28 AM EST 6:06 PM EST
Civil Twilight 6:02 AM EST 6:32 PM EST
Nautical Twilight 5:32 AM EST 7:02 PM EST
Astronomical Twilight 5:02 AM EST 7:32 PM EST
Moon 3:20 AM EST (3/7) 1:57 PM EST (3/7)
Length of Visible Light 12h 29m
Length of Day
11h 38m
Waning Crescent, 20% of the Moon is Illuminated
Mar 7
Waning Crescent
Mar 11
New
Mar 19
First Quarter
Mar 27
Full
Apr 3
Last Quarter

Hourly Weather History & Observations

Time (EST) Temp. Windchill Dew Point Humidity Pressure Visibility Wind Dir Wind Speed Gust Speed Precip Events Conditions
12:15 AM 41.0 °F 33.1 °F 35.6 °F 81% 29.89 in 10.0 mi NNW 15.0 mph 23.0 mph N/A   Overcast
12:35 AM 41.0 °F 33.5 °F 35.6 °F 81% 29.90 in 10.0 mi NW 13.8 mph 27.6 mph N/A   Overcast
12:55 AM 41.0 °F 32.8 °F 35.6 °F 81% 29.91 in 10.0 mi NW 16.1 mph 25.3 mph N/A   Overcast
1:15 AM 41.0 °F 31.9 °F 35.6 °F 81% 29.91 in 10.0 mi NW 19.6 mph 24.2 mph N/A   Mostly Cloudy
1:35 AM 41.0 °F 33.1 °F 33.8 °F 76% 29.92 in 10.0 mi NW 15.0 mph 24.2 mph N/A   Mostly Cloudy
1:55 AM 41.0 °F 33.9 °F 33.8 °F 76% 29.92 in 10.0 mi NNW 12.7 mph 19.6 mph N/A   Overcast
2:15 AM 41.0 °F 33.1 °F 33.8 °F 76% 29.92 in 10.0 mi NNW 15.0 mph 23.0 mph N/A   Scattered Clouds
2:35 AM 41.0 °F 33.1 °F 33.8 °F 76% 29.93 in 10.0 mi NW 15.0 mph 21.9 mph N/A   Scattered Clouds
2:55 AM 41.0 °F 32.2 °F 33.8 °F 76% 29.92 in 10.0 mi NNW 18.4 mph 28.8 mph N/A   Light Drizzle
3:15 AM 41.0 °F 34.3 °F 33.8 °F 76% 29.93 in 10.0 mi NNW 11.5 mph 24.2 mph N/A Rain Light Rain
3:35 AM 41.0 °F 35.2 °F 33.8 °F 76% 29.94 in 10.0 mi NNW 9.2 mph 17.3 mph N/A   Mostly Cloudy
3:55 AM 41.0 °F 35.2 °F 32.0 °F 70% 29.96 in 10.0 mi NW 9.2 mph - N/A   Mostly Cloudy
4:15 AM 41.0 °F 35.2 °F 33.8 °F 76% 29.98 in 10.0 mi NW 9.2 mph - N/A   Overcast
4:35 AM 41.0 °F 35.2 °F 33.8 °F 76% 29.98 in 10.0 mi NW 9.2 mph - N/A   Overcast
4:55 AM 39.2 °F 33.0 °F 33.8 °F 81% 29.99 in 10.0 mi NW 9.2 mph - N/A   Overcast
5:15 AM 39.2 °F 33.0 °F 33.8 °F 81% 29.99 in 10.0 mi NW 9.2 mph 16.1 mph N/A   Overcast
5:55 AM 39.2 °F 33.0 °F 33.8 °F 81% 30.00 in 10.0 mi NW 9.2 mph - N/A   Mostly Cloudy
6:15 AM 39.2 °F 33.0 °F 33.8 °F 81% 30.01 in 10.0 mi NW 9.2 mph - N/A   Overcast
6:35 AM 39.2 °F 33.0 °F 32.0 °F 75% 30.02 in 10.0 mi NW 9.2 mph 16.1 mph N/A   Mostly Cloudy
6:55 AM 39.2 °F 33.6 °F 32.0 °F 75% 30.03 in 10.0 mi NW 8.1 mph - N/A   Clear
7:15 AM 39.2 °F 33.6 °F 32.0 °F 75% 30.04 in 10.0 mi NW 8.1 mph - N/A   Clear
7:35 AM 39.2 °F 33.6 °F 33.8 °F 81% 30.05 in 10.0 mi NW 8.1 mph - N/A   Clear
7:55 AM 41.0 °F 35.2 °F 33.8 °F 76% 30.05 in 10.0 mi NNW 9.2 mph - N/A   Clear
8:15 AM 42.8 °F 37.0 °F 33.8 °F 70% 30.06 in 10.0 mi NNW 10.4 mph 17.3 mph N/A   Clear
8:35 AM 42.8 °F 34.8 °F 32.0 °F 66% 30.06 in 10.0 mi North 17.3 mph 23.0 mph N/A   Clear
8:55 AM 42.8 °F 35.4 °F 32.0 °F 66% 30.07 in 10.0 mi NNW 15.0 mph 21.9 mph N/A   Clear
9:15 AM 44.6 °F 39.7 °F 30.2 °F 57% 30.08 in 10.0 mi NNW 9.2 mph 19.6 mph N/A   Clear
9:35 AM 44.6 °F 38.1 °F 30.2 °F 57% 30.08 in 10.0 mi NW 13.8 mph 20.7 mph N/A   Clear
9:55 AM 46.4 °F 40.4 °F 30.2 °F 53% 30.08 in 10.0 mi NW 13.8 mph 21.9 mph N/A   Clear
10:15 AM 46.4 °F 40.4 °F 32.0 °F 57% 30.09 in 10.0 mi NW 13.8 mph 24.2 mph N/A   Clear
10:35 AM 46.4 °F 39.8 °F 30.2 °F 53% 30.09 in 10.0 mi NNW 16.1 mph 28.8 mph N/A   Clear
10:55 AM 46.4 °F 40.1 °F 32.0 °F 57% 30.09 in 10.0 mi NW 15.0 mph 21.9 mph N/A   Clear
11:15 AM 48.2 °F - 32.0 °F 54% 30.09 in 10.0 mi NNW 13.8 mph 24.2 mph N/A   Clear
11:35 AM 48.2 °F - 30.2 °F 50% 30.09 in 10.0 mi NW 16.1 mph 27.6 mph N/A   Clear
11:55 AM 48.2 °F - 30.2 °F 50% 30.08 in 10.0 mi North 12.7 mph 21.9 mph N/A   Clear
12:15 PM 48.2 °F - 32.0 °F 54% 30.08 in 10.0 mi NNW 11.5 mph 26.5 mph N/A   Scattered Clouds
12:35 PM 48.2 °F - 33.8 °F 58% 30.07 in 10.0 mi NW 16.1 mph 26.5 mph N/A   Scattered Clouds
12:55 PM 51.8 °F - 33.8 °F 50% 30.06 in 10.0 mi NW 15.0 mph 19.6 mph N/A   Mostly Cloudy
1:15 PM 50.0 °F - 32.0 °F 50% 30.05 in 10.0 mi NW 17.3 mph 25.3 mph N/A   Scattered Clouds
1:35 PM 51.8 °F - 33.8 °F 50% 30.04 in 10.0 mi NNW 13.8 mph 20.7 mph N/A   Scattered Clouds
1:55 PM 51.8 °F - 33.8 °F 50% 30.05 in 10.0 mi NW 18.4 mph 29.9 mph N/A   Scattered Clouds
2:15 PM 51.8 °F - 32.0 °F 47% 30.04 in 10.0 mi NW 13.8 mph 23.0 mph N/A   Scattered Clouds
2:35 PM 51.8 °F - 32.0 °F 47% 30.04 in 10.0 mi NW 20.7 mph 24.2 mph N/A   Scattered Clouds
2:55 PM 51.8 °F - 30.2 °F 44% 30.04 in 10.0 mi NW 11.5 mph 24.2 mph N/A   Scattered Clouds
3:15 PM 51.8 °F - 30.2 °F 44% 30.05 in 10.0 mi NNW 13.8 mph 24.2 mph N/A   Scattered Clouds
3:35 PM 51.8 °F - 30.2 °F 44% 30.05 in 10.0 mi NNW 11.5 mph 19.6 mph N/A   Scattered Clouds
3:55 PM 51.8 °F - 30.2 °F 44% 30.06 in 10.0 mi NNW 10.4 mph 17.3 mph N/A   Scattered Clouds
4:15 PM 50.0 °F - 28.4 °F 43% 30.06 in 10.0 mi NW 16.1 mph 26.5 mph N/A   Scattered Clouds
4:35 PM 51.8 °F - 28.4 °F 41% 30.07 in 10.0 mi NNW 9.2 mph 21.9 mph N/A   Scattered Clouds
4:55 PM 50.0 °F - 28.4 °F 43% 30.08 in 10.0 mi NW 12.7 mph 21.9 mph N/A   Mostly Cloudy
5:15 PM 50.0 °F - 28.4 °F 43% 30.08 in 10.0 mi NNW 15.0 mph 20.7 mph N/A   Overcast
5:35 PM 48.2 °F - 28.4 °F 46% 30.09 in 10.0 mi NNW 6.9 mph 16.1 mph N/A   Mostly Cloudy
5:55 PM 48.2 °F - 28.4 °F 46% 30.10 in 10.0 mi NNW 5.8 mph - N/A   Scattered Clouds
6:15 PM 46.4 °F 41.1 °F 28.4 °F 50% 30.11 in 10.0 mi NNW 11.5 mph 16.1 mph N/A   Scattered Clouds
6:35 PM 46.4 °F 42.4 °F 28.4 °F 50% 30.12 in 10.0 mi NNW 8.1 mph - N/A   Scattered Clouds
6:55 PM 46.4 °F 40.7 °F 28.4 °F 50% 30.13 in 10.0 mi NW 12.7 mph - N/A   Scattered Clouds
8:35 PM 42.8 °F 38.6 °F 28.4 °F 57% 30.15 in 10.0 mi WNW 6.9 mph - N/A   Scattered Clouds
9:15 PM 42.8 °F 39.3 °F 28.4 °F 57% 30.15 in 10.0 mi WNW 5.8 mph - N/A   Mostly Cloudy
9:35 PM 42.8 °F 39.3 °F 28.4 °F 57% 30.15 in 10.0 mi West 5.8 mph - N/A   Overcast
9:55 PM 42.8 °F 38.0 °F 28.4 °F 57% 30.14 in 10.0 mi WNW 8.1 mph - N/A   Overcast
10:15 PM 42.8 °F 38.0 °F 28.4 °F 57% 30.14 in 10.0 mi WNW 8.1 mph - N/A   Mostly Cloudy
10:35 PM 42.8 °F 37.5 °F 28.4 °F 57% 30.14 in 10.0 mi WNW 9.2 mph - N/A   Overcast
10:55 PM 42.8 °F 38.6 °F 28.4 °F 57% 30.14 in 10.0 mi WNW 6.9 mph - N/A   Overcast
11:15 PM 41.0 °F 35.8 °F 28.4 °F 61% 30.15 in 10.0 mi WNW 8.1 mph - N/A   Scattered Clouds
11:35 PM 39.2 °F 32.5 °F 28.4 °F 65% 30.14 in 10.0 mi WNW 10.4 mph - N/A   Scattered Clouds
11:55 PM 39.2 °F 33.0 °F 28.4 °F 65% 30.15 in 10.0 mi WNW 9.2 mph - N/A   Scattered Clouds